Date String (YYYY-MM-DD hh:mm:ss) UTC,Instrument flags,Ambient pressure (hPa),Sample flow (lpm),Bypass flow (lpm),Sample temperature (°C),Ambient temperature (°C),ASC tube jacket temperature (°C),LED temperature (°C),Box temperature (°C),Sample RH (%),Span deviation,Mass concentration (μg/m³),Mass concentration (μg/m³),Mass concentration (μg/m³)
DateTimeUTC,F1_M11,P_M11,Q1_M11,Q2_M11,T1_M11,T2_M11,T3_M11,T4_M11,T5_M11,U1_M11,ZSPAN_M11,X0_M11,X2_M11,X1_M11
2021-11-20 19:00:00,,0826.2,5.00,0.00,27.3,26.6,00.0,36.3,29.1,10.3,0000.0,0014.62,0004.66,0003.77
2021-11-20 19:01:00,,0826.2,5.01,0.00,27.3,26.6,00.0,36.3,29.0,10.4,0000.0,0014.47,0004.61,0003.75
2021-11-20 19:02:00,,0826.2,4.99,0.00,27.3,26.5,00.0,36.3,29.0,10.3,0000.0,0014.46,0004.58,0003.74
2021-11-20 19:03:00,,0826.2,5.00,0.00,27.3,26.5,00.0,36.3,29.0,10.3,0000.0,0015.30,0004.58,0003.73
2021-11-20 19:04:00,,0826.2,4.99,0.00,27.2,26.5,00.0,36.3,29.0,10.4,0000.0,0015.82,0004.59,0003.71
2021-11-20 19:05:00,,0826.2,5.00,0.00,27.2,26.5,00.0,36.3,29.0,10.5,0000.0,0016.48,0004.61,0003.71
2021-11-20 19:06:00,,0826.1,5.00,0.00,27.2,26.5,00.0,36.3,29.0,10.5,0000.0,0015.63,0004.63,0003.70
2021-11-20 19:07:00,,0826.0,5.00,0.00,27.2,26.5,00.0,36.3,29.0,10.4,0000.0,0014.45,0004.61,0003.69
2021-11-20 19:08:00,,0826.1,4.98,0.00,27.2,26.5,00.0,36.3,29.0,10.3,0000.0,0014.01,0004.59,0003.67
2021-11-20 19:09:00,,0826.0,5.01,0.00,27.2,26.5,00.0,36.2,28.9,10.3,0000.0,0013.40,0004.57,0003.65
2021-11-20 19:10:00,,0826.0,5.00,0.00,27.2,26.5,00.0,36.2,28.9,10.4,0000.0,0012.97,0004.52,0003.62
2021-11-20 19:11:00,,0826.0,4.99,0.00,27.2,26.4,00.0,36.2,28.9,10.4,0000.0,0012.61,0004.47,0003.59
2021-11-20 19:12:00,,0826.0,5.00,0.00,27.2,26.4,00.0,36.2,29.0,10.4,0000.0,0012.66,0004.48,0003.57
2021-11-20 19:13:00,,0826.0,5.00,0.00,27.2,26.4,00.0,36.2,28.9,10.4,0000.0,0013.00,0004.47,0003.56
2021-11-20 19:14:00,,0826.0,5.00,0.00,27.2,26.4,00.0,36.2,28.9,10.5,0000.0,0011.55,0004.43,0003.54
2021-11-20 19:15:00,,0826.0,5.00,0.00,27.2,26.4,00.0,36.2,28.9,10.5,0000.0,0010.57,0004.39,0003.54
2021-11-20 19:16:00,,0826.0,5.00,0.00,27.2,26.4,00.0,36.2,28.9,10.5,0000.0,0009.48,0004.32,0003.55
2021-11-20 19:17:00,,0826.0,5.00,0.00,27.1,26.3,00.0,36.2,28.9,10.4,0000.0,0009.96,0004.25,0003.56
2021-11-20 19:18:00,,0826.0,4.99,0.00,27.1,26.3,00.0,36.2,28.8,10.4,0000.0,0010.25,0004.22,0003.58
2021-11-20 19:19:00,,0826.0,5.01,0.00,27.1,26.3,00.0,36.2,28.8,10.5,0000.0,0010.54,0004.22,0003.60
2021-11-20 19:20:00,,0826.0,4.99,0.00,27.1,26.3,00.0,36.2,28.8,10.6,0000.0,0010.70,0004.29,0003.64
2021-11-20 19:21:00,,0826.0,5.00,0.00,27.1,26.3,00.0,36.2,28.8,10.6,0000.0,0010.78,0004.37,0003.70
2021-11-20 19:22:00,,0826.0,4.99,0.00,27.1,26.2,00.0,36.2,28.8,10.7,0000.0,0011.30,0004.48,0003.76
2021-11-20 19:23:00,,0826.0,5.01,0.00,27.0,26.2,00.0,36.2,28.8,10.7,0000.0,0012.90,0004.59,0003.81
2021-11-20 19:24:00,,0826.0,5.00,0.00,27.0,26.2,00.0,36.1,28.7,10.8,0000.0,0013.15,0004.63,0003.83
2021-11-20 19:25:00,,0826.0,4.99,0.00,27.0,26.2,00.0,36.1,28.8,10.8,0000.0,0013.82,0004.67,0003.86
2021-11-20 19:26:00,,0826.0,4.99,0.00,27.0,26.2,00.0,36.1,28.8,10.7,0000.0,0014.67,0004.68,0003.88
2021-11-20 19:27:00,,0826.0,5.02,0.00,27.0,26.2,00.0,36.1,28.7,10.8,0000.0,0015.58,0004.71,0003.89
2021-11-20 19:28:00,,0826.0,5.00,0.00,27.0,26.2,00.0,36.1,28.7,10.7,0000.0,0014.93,0004.73,0003.90
2021-11-20 19:29:00,,0826.0,4.98,0.00,27.0,26.2,00.0,36.1,28.8,10.7,0001.5,0014.76,0004.73,0003.91
2021-11-20 19:30:00,,0826.0,5.02,0.00,27.0,26.2,00.0,36.1,28.7,10.7,0000.0,0015.02,0004.75,0003.92
2021-11-20 19:31:00,,0825.9,5.00,0.00,27.0,26.2,00.0,36.1,28.7,10.8,0000.0,0015.70,0004.75,0003.91
2021-11-20 19:32:00,,0826.0,5.00,0.00,27.0,26.1,00.0,36.1,28.7,10.8,0000.0,0015.86,0004.73,0003.88
2021-11-20 19:33:00,,0825.9,4.98,0.00,26.9,26.1,00.0,36.0,28.6,10.8,0000.0,0015.35,0004.65,0003.83
2021-11-20 19:34:00,,0826.0,4.99,0.00,26.9,26.0,00.0,36.0,28.6,10.9,0000.0,0014.08,0004.56,0003.79
2021-11-20 19:35:00,,0825.9,5.00,0.00,26.9,26.0,00.0,36.0,28.6,10.9,0000.0,0013.88,0004.54,0003.77
2021-11-20 19:36:00,,0825.9,5.00,0.00,26.9,26.0,00.0,36.0,28.6,10.9,0000.0,0014.70,0004.58,0003.78
2021-11-20 19:37:00,,0825.9,5.00,0.00,26.9,26.0,00.0,36.0,28.6,10.9,0000.0,0014.10,0004.62,0003.78
2021-11-20 19:38:00,,0825.8,5.01,0.00,26.9,25.9,00.0,36.0,28.6,10.8,0000.0,0013.43,0004.67,0003.79
2021-11-20 19:39:00,,0825.8,5.01,0.00,26.8,25.9,00.0,36.0,28.5,10.9,0000.0,0013.59,0004.73,0003.79
2021-11-20 19:40:00,,0826.1,4.99,0.00,26.8,25.9,00.0,36.0,28.5,10.9,0000.0,0013.60,0004.74,0003.77
2021-11-20 19:41:00,,0825.9,5.01,0.00,26.8,25.8,00.0,35.9,28.5,11.0,0000.0,0013.27,0004.75,0003.74
2021-11-20 19:42:00,,0826.0,5.01,0.00,26.7,25.8,00.0,35.9,28.4,11.0,0000.0,0012.67,0004.71,0003.72
2021-11-20 19:43:00,,0825.9,5.00,0.00,26.7,25.7,00.0,35.9,28.4,11.1,0000.0,0012.48,0004.72,0003.71
2021-11-20 19:44:00,,0825.8,4.99,0.00,26.7,25.7,00.0,35.9,28.4,11.1,0000.0,0012.71,0004.70,0003.69
2021-11-20 19:45:00,,0825.9,5.00,0.00,26.7,25.7,00.0,35.9,28.4,11.1,0000.0,0012.64,0004.69,0003.69
2021-11-20 19:46:00,,0826.0,5.01,0.00,26.7,25.8,00.0,35.9,28.4,11.1,0000.0,0012.61,0004.67,0003.68
2021-11-20 19:47:00,,0826.0,5.00,0.00,26.7,25.8,00.0,35.8,28.4,11.1,0000.0,0011.26,0004.61,0003.64
2021-11-20 19:48:00,,0826.0,4.99,0.00,26.7,25.8,00.0,35.8,28.4,11.1,0000.0,0011.55,0004.57,0003.60
2021-11-20 19:49:00,,0826.1,5.00,0.00,26.7,25.8,00.0,35.8,28.4,11.2,0000.0,0012.04,0004.45,0003.54
2021-11-20 19:50:00,,0826.1,5.00,0.00,26.7,25.8,00.0,35.8,28.4,11.2,0000.0,0012.28,0004.39,0003.49
2021-11-20 19:51:00,,0826.0,4.99,0.00,26.7,25.9,00.0,35.8,28.4,11.2,0000.0,0012.85,0004.34,0003.46
2021-11-20 19:52:00,,0826.0,5.01,0.00,26.7,25.9,00.0,35.8,28.4,11.2,0000.0,0013.10,0004.31,0003.44
2021-11-20 19:53:00,,0826.0,5.00,0.00,26.7,25.9,00.0,35.8,28.4,11.2,0000.0,0013.25,0004.30,0003.42
2021-11-20 19:54:00,,0826.0,5.01,0.00,26.7,25.9,00.0,35.8,28.4,11.3,0000.0,0013.49,0004.24,0003.40
2021-11-20 19:55:00,,0826.0,5.00,0.00,26.7,25.9,00.0,35.8,28.4,11.2,0000.0,0013.51,0004.26,0003.38
2021-11-20 19:56:00,,0825.9,5.00,0.00,26.7,25.9,00.0,35.7,28.4,11.2,0000.0,0013.32,0004.24,0003.37
2021-11-20 19:57:00,,0825.9,5.00,0.00,26.6,25.8,00.0,35.7,28.4,11.3,0000.0,0013.61,0004.21,0003.33
2021-11-20 19:58:00,,0825.9,5.00,0.00,26.6,25.8,00.0,35.7,28.3,11.4,0000.0,0013.33,0004.13,0003.28
2021-11-20 19:59:00,,0825.9,5.00,0.00,26.6,25.7,00.0,35.7,28.3,11.4,0000.0,0013.01,0004.06,0003.23
